Regional Weather Roundup
Issued by NWS

Home | Current Version | Previous Version | Graphics & Text | Print | Product List | Glossary On
Versions: 1 2 3 4 5 6 7 8 9 10 11 12 13 14 15 16 17 18 19 20 21 22 23 24 25 26 27 28 29 30 31 32 33 34 35 36 37 38 39 40 41 42 43 44 45 46 47 48 49 50
000
ASUS44 KMEG 101110
RWRTN
TENNESSEE HOURLY STATE WEATHER ROUNDUP
NATIONAL WEATHER SERVICE MEMPHIS TN
600 AM CDT THU JUL 10 2014

TNZ002-004-019-021-049-052-054-088>092-101200-
WEST TENNESSEE

CITY           SKY/WX    TMP DP  RH WIND       PRES   REMARKS
MEMPHIS INTL   PTCLDY    71  69  93 CALM      30.04R
NWS MEMPHIS      N/A     68 N/A N/A MISG        N/A
JACKSON        PTCLDY    64  62  93 CALM      30.04F FOG
DYERSBURG      CLEAR     66  59  77 CALM      30.04F
UNION CITY     CLEAR     64  64 100 CALM      30.03S
PARIS          CLEAR     60  59  97 CALM      30.06R
LEXINGTON      CLOUDY    63  63 100 CALM      30.04S VSB 1/4
SAVANNAH       CLOUDY    66  66 100 CALM      30.05S VSB 1/2
$$

TNZ008-025-027-028-033-062-065-066-101200-
NORTH MIDDLE TENNESSEE

CITY           SKY/WX    TMP DP  RH WIND       PRES   REMARKS
NASHVILLE      MOCLDY    67  64  90 CALM      30.06R
DICKSON        CLEAR     63  61  94 CALM      30.06R
PORTLAND       MOCLDY    61  59  94 CALM      30.06R
CLARKSVILLE    CLEAR     61  60  97 CALM      30.05S FOG
LEBANON        CLOUDY    67  67 100 CALM      30.05R
SMYRNA         FOG       72  72 100 CALM      30.07R VSB 1/2
MURFREESBORO   CLOUDY    71  71 100 CALM      30.05S
COOKEVILLE     CLOUDY    68  68 100 CALM      30.08R VSB 1/4
LIVINGSTON     CLOUDY    64  64 100 CALM      30.09R VSB<1/4
GALLATIN       CLEAR     63  63 100 CALM      30.07R
CROSSVILLE     HAZE      71  65  81 CALM      30.12R VSB<1/4
$$

TNZ061-075-076-078-094-096-097-101200-
SOUTH MIDDLE TENNESSEE

CITY           SKY/WX    TMP DP  RH WIND       PRES   REMARKS
LEWISBURG      CLOUDY    71  70  97 CALM      30.05S
TULLAHOMA      CLOUDY    70  70 100 CALM      30.09R
WINCHESTER     CLOUDY    70  70 100 CALM      30.08R
MCMINNVILLE    CLOUDY    70  70 100 CALM      30.08R VSB 1
COLUMBIA       CLOUDY    68  68 100 CALM      30.05R VSB 1/4
$$

TNZ017-018-042-046-047-101200-
NORTHEAST TENNESSEE

CITY           SKY/WX    TMP DP  RH WIND       PRES   REMARKS
TRI CITIES     PTCLDY    67  64  90 CALM      30.10R
ELIZABETHTON   CLOUDY    64  63  94 CALM      30.11R
$$

TNZ012-013-036-069-073-074-101200-
CENTRAL EAST TENNESSEE

CITY           SKY/WX    TMP DP  RH WIND       PRES   REMARKS
KNOXVILLE      CLOUDY    68  67  96 SE3       30.07R
OAK RIDGE      FOG       69  68  96 CALM      30.09R VSB 1
$$

TNZ083-085-099-101200-
SOUTHEAST TENNESSEE

CITY           SKY/WX    TMP DP  RH WIND       PRES   REMARKS
CHATTANOOGA    MOCLDY    71  68  90 CALM      30.06S FOG
$$

SKY/WX REPORTED AS FAIR MEANS FEW OR NO CLOUDS BELOW
12 THOUSAND FEET.




USA.gov is the U.S. government's official web portal to all federal, state and local government web resources and services.